Regional Weather Roundup
Issued by NWS State College, PA

Home | Current Version | Previous Version | Graphics & Text | Print | Product List | Glossary On
Versions: 1 2 3 4 5 6 7 8 9 10 11 12 13 14 15 16 17 18 19 20 21 22 23 24 25 26 27 28 29 30 31 32 33 34 35 36 37 38 39 40 41 42 43 44 45 46 47 48 49 50
000
ASUS41 KCTP 300410
RWRCTP

REGIONAL WEATHER ROUNDUP
NATIONAL WEATHER SERVICE STATE COLLEGE PA
1200 AM EDT SAT JUL 30 2016

Note: "fair" indicates few or no clouds below 12,000 feet with no
significant weather and/or obstructions to visibility.

* = STATION THAT DOES NOT REPORT PRECIPITATION /E.G. RAIN...SNOW...ETC/
    THUNDER OR FOG.

PAZ002>004-007>009-013>016-020>023-029>032-300500-
WESTERN PENNSYLVANIA

CITY           SKY/WX    TMP DP  RH WIND       PRES   REMARKS
ERIE           CLOUDY    74  67  78 E6        29.96F HAZE
MEADVILLE      CLOUDY    65  64  97 NE3       29.99F
FRANKLIN*      CLOUDY    66  63  88 NE6       30.01S
NEW CASTLE     FAIR      68  66  93 CALM      29.98S
BEAVER COUNTY  NOT AVBL
BUTLER*        CLOUDY    66  63  88 CALM      30.01S
PITTSBURGH INT CLOUDY    74  65  73 E3        29.97S
PITTSBURGH     CLOUDY    76  63  64 CALM      29.97S
INDIANA*       PTCLDY    68  64  88 CALM      30.02F
LATROBE        CLOUDY    70  70 100 CALM      29.99S
WASHINGTON CO* CLEAR     66  64  94 CALM      29.98S
$$

PAZ004>006-010>012-017>019-024>028-033>037-041-042-045-046-049>053-300500-
CENTRAL PENNSYLVANIA

CITY           SKY/WX    TMP DP  RH WIND       PRES   REMARKS
BRADFORD       CLOUDY    67  63  87 NE3       30.04S
DUBOIS         CLOUDY    69  64  84 E5        30.01S
CLEARFIELD     CLEAR     68  63  84 N3        30.00F
JOHNSTOWN      CLEAR     69  60  73 E6        30.03S
ALTOONA        CLEAR     66  66 100 CALM      30.00R
STATE COLLEGE  CLEAR     69  65  84 CALM      29.99S
WILLIAMSPORT   CLEAR     74  64  71 CALM      29.94S
SELINSGROVE    CLOUDY    72  71  97 CALM      29.96R
FT INDIANTOWN  CLOUDY    72  68  88 N6        29.95S
CAPITAL CITY   PTCLDY    79  68  69 CALM      29.93R
HARRISBURG     PTCLDY    80  72  76 NE6       29.93R
YORK           CLEAR     73  69  87 CALM      29.94S
$$

PAZ038>040-043-044-047-048-054-055-060>062-067>071-300500-
EASTERN PENNSYLVANIA

CITY           SKY/WX    TMP DP  RH WIND       PRES   REMARKS
SCRANTON       CLOUDY    73  65  75 E6        29.97R
MOUNT POCONO   CLEAR     65  62  90 CALM      30.02S
ALLENTOWN      CLEAR     74  70  87 CALM      29.95R
QUAKERTOWN*    CLOUDY    72  72 100 CALM      29.97S
READING        CLOUDY    74  71  91 E3        29.94R
LANCASTER      CLEAR     73  70  90 E3        29.94R
COATESVILLE    MOCLDY    75  70  83 CALM      29.98S
POTTSTOWN      CLOUDY    75  70  84 CALM      29.97R
BLUE BELL      CLOUDY    72  68  88 CALM      29.94F
DOYLESTOWN     CLOUDY    68  68 100 CALM      29.94F
WILLOW GROVE   NOT AVBL
NORTH PHILA    CLOUDY    77  69  76 CALM      29.96S
PHILADELPHIA   MOCLDY    78  72  81 CALM      29.96R
$$




USA.gov is the U.S. government's official web portal to all federal, state and local government web resources and services.